This is the latest recevied weather packets stored in our database for station/object K3HW. If no packets are shown the sender has not sent any weather packets the latest 10 day(s).
| Time | Temp. | Humidity | Pressure | Rain* | Wind** | Luminosity | Snow |
|---|---|---|---|---|---|---|---|
| 1778092549 | 16.67° C | 86% | 1011.5 hPa | 0 mm | - | 40 W/m² | - |
| 1778092246 | 16.67° C | 85% | 1011.3 hPa | 0 mm | - | 38 W/m² | - |
| 1778091944 | 17.22° C | 85% | 1011.5 hPa | 0 mm | - | 45 W/m² | - |
| 1778091641 | 16.67° C | 84% | 1011.5 hPa | 0 mm | - | 53 W/m² | - |
| 1778091339 | 16.67° C | 85% | 1011.5 hPa | 0 mm | - | 33 W/m² | - |
| 1778091035 | 16.67° C | 84% | 1011.3 hPa | 0 mm | - | 42 W/m² | - |
| 1778090731 | 16.67° C | 84% | 1011.6 hPa | 0 mm | - | 37 W/m² | - |
| 1778090429 | 16.67° C | 84% | 1011.6 hPa | 0 mm | - | 31 W/m² | - |
| 1778090125 | 16.67° C | 84% | 1011.6 hPa | 0 mm | - | 29 W/m² | - |
| 1778089821 | 16.67° C | 84% | 1011.6 hPa | 0 mm | - | 26 W/m² | - |
| 1778089520 | 16.67° C | 84% | 1011.7 hPa | 0 mm | - | 30 W/m² | - |
| 1778089216 | 16.67° C | 85% | 1011.6 hPa | 0 mm | - | 26 W/m² | - |
| 1778088914 | 16.67° C | 85% | 1011.6 hPa | 0 mm | - | 31 W/m² | - |
| 1778088610 | 16.67° C | 86% | 1011.4 hPa | 0 mm | - | 76 W/m² | - |
| 1778088308 | 16.67° C | 86% | 1011.6 hPa | 0 mm | - | 53 W/m² | - |
| 1778088004 | 16.67° C | 86% | 1011.7 hPa | 0 mm | - | 38 W/m² | - |
| 1778087701 | 16.67° C | 86% | 1012 hPa | 0 mm | - | 29 W/m² | - |
| 1778087399 | 16.67° C | 86% | 1011.9 hPa | 0 mm | - | 25 W/m² | - |
| 1778087096 | 16.67° C | 86% | 1011.8 hPa | 0 mm | - | 27 W/m² | - |
| 1778086794 | 16.67° C | 87% | 1011.9 hPa | 0 mm | - | 62 W/m² | - |
| 1778086492 | 16.67° C | 87% | 1011.8 hPa | 0 mm | - | 54 W/m² | - |
| 1778086188 | 16.67° C | 87% | 1012 hPa | 0 mm | - | 45 W/m² | - |
| 1778085885 | 16.67° C | 88% | 1011.8 hPa | 0 mm | - | 93 W/m² | - |
| 1778085582 | 16.67° C | 88% | 1011.9 hPa | 0 mm | - | 74 W/m² | - |
| 1778085277 | 16.67° C | 88% | 1011.6 hPa | 1.27 mm | - | 95 W/m² | - |
* Rain latest hour (hover to see other rain measurements)
** Current wind speed in m/s (hover to see current wind gust speed)